Snowfall_Accumulation
0.2 0.2 0.1 0.1 0.3 0.3 0.2 0.1 0.1 0.1 0.1 0.1 0.1 0.1 0.1 0.1 0.1 0.2 0.2 0.2 0.7 0.7 0.6 0.6 0.9 0.8 0.3 0.3 0.2 0.3 0.3 0.3 0.2 0.2 0.3 0.5 0.7 0.8 1.1 1.3 1.4 1.5
0.1 0.1 0.1 0.1 0.1 0.1 0.1 0.1 0.1 0.2 0.2 0.1 0.1 0.1 0.1 0.1 0.1 0.1 0.2 0.2 0.3 0.3 0.2 0.6 0.4 0.8 0.6 0.7 0.5 0.7 0.7 0.6 0.7 0.4 0.5 0.5 0.7 0.7 0.8 0.8 1.1 1.2
0.1 0.1 0.1 0.1 0.1 0.1 0.1 0.1 0.2 0.1 0.1 0.1 0.1 0.1 0.2 0.1 0.2 0.2 0.2 0.3 0.4 0.7 0.4 0.9 0.7 0.8 1.0 0.8 0.4 0.6 0.7 0.8 0.9 0.8 1.0 0.9 0.7 0.8 0.8 0.8 0.9 1.2
0.1 0.0 0.1 0.1 0.1 0.2 0.1 0.1 0.1 0.2 0.1 0.1 0.1 0.1 0.1 0.2 0.3 0.3 0.4 0.5 0.5 0.6 0.7 0.7 0.7 0.8 0.9 0.6 1.4 1.2 1.3 1.0 1.0 0.9 1.0 1.3 1.2 1.0 0.9 0.9 1.1 1.1
0.1 0.1 0.1 0.1 0.1 0.1 0.1 0.1 0.1 0.1 0.2 0.1 0.2 0.1 0.3 0.3 0.4 0.6 0.7 0.7 0.7 0.8 1.6 1.0 0.9 0.9 0.7 0.6 0.8 1.2 0.8 0.8 0.6 0.7 0.9 1.2 1.2 1.2 1.1 1.3 1.4 1.5
0.1 0.1 0.1 0.1 0.1 0.1 0.2 0.2 0.2 0.3 0.8 0.4 0.4 0.2 0.4 0.5 0.6 0.5 0.7 0.8 0.8 0.8 0.9 2.5 1.4 1.1 1.5 0.7 0.7 0.5 0.7 0.6 0.8 0.6 0.7 0.8 0.7 0.8 1.1 1.3 1.7 1.6
0.1 0.1 0.1 0.1 0.1 0.2 0.2 0.3 0.4 0.7 0.4 0.6 1.0 1.1 0.5 0.5 0.5 0.6 0.8 0.9 1.0 1.0 0.9 1.4 1.0 1.2 0.8 0.8 1.0 0.9 1.0 0.8 0.8 0.8 0.8 0.8 0.8 0.8 0.8 1.3 1.4 1.4
0.1 0.1 0.2 0.2 0.2 0.2 0.2 0.4 1.0 0.8 1.0 0.7 1.2 0.4 0.8 0.6 0.7 0.8 0.9 1.0 1.1 1.2 1.0 1.0 1.6 1.4 1.0 1.1 1.1 1.0 1.0 0.9 1.2 1.5 1.1 1.2 0.9 1.0 0.9 1.0 1.3 1.6
0.2 0.2 0.2 0.2 0.2 0.2 0.6 0.4 0.7 0.9 0.9 0.8 0.7 0.7 0.8 1.1 1.1 1.2 1.3 1.4 1.4 1.3 1.3 1.6 1.6 1.7 1.4 1.8 2.0 1.9 1.7 1.4 1.2 1.2 1.2 1.3 1.2 1.1 1.0 0.9 1.3 1.6
0.3 0.3 0.3 0.4 0.8 0.5 0.4 0.5 0.6 0.7 0.7 0.8 1.0 1.1 1.3 1.2 1.2 1.2 1.4 1.4 1.6 1.7 2.1 1.6 1.7 1.5 1.6 2.1 2.1 2.0 2.3 2.6 2.1 1.7 1.6 1.6 1.8 1.4 1.1 1.1 1.3 1.6
0.5 0.5 0.6 0.7 0.6 0.6 0.6 0.7 1.3 0.8 0.8 1.6 1.3 1.6 2.4 1.6 1.5 1.4 1.6 1.8 1.8 1.6 1.4 1.4 1.5 1.5 1.6 1.6 1.6 1.7 1.9 2.0 2.2 2.3 2.3 2.2 2.0 2.0 2.0 1.9 1.8 1.6
0.6 0.6 0.6 0.6 0.7 1.1 0.8 0.8 0.9 1.1 1.1 1.6 2.3 1.4 2.0 1.8 2.1 1.9 2.0 1.9 1.8 1.8 1.7 2.0 1.7 1.7 1.8 2.2 1.8 1.6 1.7 1.8 1.9 1.9 1.9 2.1 2.2 2.3 2.1 2.1 2.2 2.1
0.5 0.6 0.6 0.7 0.7 0.8 0.9 1.2 1.2 1.2 1.3 1.5 1.6 1.9 2.4 2.5 2.6 2.2 2.1 2.1 2.1 2.1 2.1 2.1 2.1 2.0 2.0 1.9 1.9 1.9 2.0 2.1 2.1 2.1 2.0 1.9 1.9 2.0 1.9 1.9 2.1 2.1
0.5 0.6 0.6 0.7 1.0 1.9 1.2 1.3 1.4 1.5 1.7 1.7 2.1 2.3 3.0 3.1 3.3 2.7 2.4 2.3 2.6 2.6 2.4 2.3 2.5 2.4 2.3 2.2 2.2 2.3 2.4 2.7 2.4 2.8 2.9 2.7 2.4 2.2 2.0 2.1 2.1 2.1
0.5 0.6 0.8 1.2 1.1 1.4 1.5 1.5 1.7 2.0 1.9 2.3 2.8 3.4 3.0 3.1 3.3 3.1 3.1 3.3 2.8 2.8 3.1 2.6 3.0 2.9 2.7 2.8 3.0 3.0 3.3 4.3 4.1 4.4 4.3 4.4 3.9 3.4 2.9 2.6 2.4 2.3
0.7 1.0 1.3 1.6 1.7 1.8 1.8 1.7 1.8 2.1 2.7 2.6 3.2 3.4 3.5 3.0 3.2 3.4 3.8 5.2 3.8 3.5 3.4 3.9 3.6 3.3 3.0 2.9 3.9 6.2 7.9 8.3 8.4 8.0 7.6 7.3 7.0 6.2 5.0 4.0 3.4 2.9
1.0 1.3 1.5 1.7 1.9 1.8 1.9 2.1 2.3 2.6 2.8 3.3 3.3 3.4 3.8 4.4 4.0 4.8 4.6 4.6 4.5 4.7 5.2 4.9 4.7 4.0 3.4 4.4 8.1 10.7 11.9 12.4 11.7 10.0 8.3 8.0 7.5 7.1 6.4 4.8 3.7 3.1
1.4 1.5 1.8 1.9 1.9 2.2 2.4 2.9 2.7 3.1 3.2 3.4 4.3 4.0 4.6 4.6 5.8 6.1 5.0 4.8 5.1 5.3 5.7 5.4 5.4 4.2 4.5 8.0 9.9 13.4 16.9 14.9 14.4 12.9 10.8 9.3 8.2 7.5 6.4 5.4 4.6 3.9
1.6 2.0 2.2 2.4 2.5 3.3 2.8 3.1 3.4 3.7 3.9 4.4 4.7 4.8 5.4 6.3 6.9 6.0 5.9 6.0 6.1 7.0 6.4 6.0 6.0 4.7 5.7 8.9 11.0 15.7 18.4 19.3 16.8 13.5 11.3 9.4 7.8 6.9 6.1 5.4 4.9 5.3
2.0 2.5 2.8 2.9 2.9 2.9 3.1 3.6 4.1 4.7 4.7 5.3 5.5 5.7 6.6 7.1 6.8 7.2 7.0 7.6 7.9 8.3 8.0 7.6 7.2 6.0 6.3 10.7 14.7 17.4 20.1 22.2 17.5 14.8 12.5 10.4 8.5 7.2 6.3 5.8 5.5 5.9
2.5 3.1 3.7 3.3 3.2 3.2 3.6 4.1 4.5 4.7 4.9 5.3 6.0 6.7 7.6 8.4 8.2 8.4 8.4 8.6 8.8 9.8 9.7 9.6 8.0 6.7 9.3 14.1 16.1 18.5 20.0 24.1 20.3 17.3 14.1 10.9 8.7 7.4 6.9 6.3 5.8 5.7
3.0 3.5 3.5 3.7 3.5 3.8 4.6 4.9 4.8 5.1 6.1 5.8 6.4 6.8 7.1 7.5 7.0 7.0 7.3 7.4 7.0 7.7 8.9 8.9 6.9 6.4 10.6 14.6 15.7 18.9 22.3 21.4 21.6 17.6 14.2 11.6 9.4 7.7 6.8 6.0 5.5 5.8
3.3 3.7 4.0 3.9 4.2 4.7 5.0 5.1 5.3 5.2 5.1 5.2 6.3 5.8 5.6 5.3 5.5 5.2 5.4 6.2 6.4 6.6 7.1 6.7 6.2 6.1 8.2 13.3 14.3 17.7 22.6 25.2 22.9 18.1 14.4 11.9 9.4 7.7 6.8 6.2 5.7 5.5
3.3 3.9 4.7 4.6 4.9 5.2 4.9 4.4 4.2 4.4 4.8 4.8 6.0 6.0 5.9 5.5 5.2 5.4 5.3 5.6 6.3 6.6 6.7 7.2 6.4 5.5 7.0 10.9 13.3 16.4 19.7 21.4 21.4 20.0 15.9 12.6 10.6 8.6 7.7 7.3 5.9 5.8
3.7 3.9 4.5 4.9 5.2 4.7 4.3 4.5 4.4 4.6 4.6 4.9 5.5 5.6 5.5 4.8 5.0 5.5 5.3 5.5 5.7 5.9 5.7 6.6 6.6 5.6 5.7 9.3 12.1 15.8 17.5 19.7 20.3 19.1 17.2 13.7 11.8 10.7 8.6 7.2 6.0 5.1
3.6 4.0 4.2 4.7 5.0 4.4 4.0 4.2 4.4 4.8 4.6 5.1 5.1 4.8 5.0 4.6 4.7 4.8 5.0 5.1 5.3 6.3 6.7 6.5 6.6 6.0 6.0 6.7 12.5 14.0 17.5 17.6 17.8 18.0 17.6 15.0 13.1 11.7 11.8 10.1 7.9 6.8